Other Public Products
Issued by NWS Grand Forks, ND

Home | Current Version | Previous Version | Graphics & Text | Print | Product List | Glossary On
Versions: 1 2 3 4 5 6 7 8 9 10 11 12 13 14 15 16 17 18 19 20 21 22 23 24 25 26 27 28 29 30 31 32 33 34 35 36 37 38 39 40 41 42 43 44 45 46 47 48 49 50
000
FPUS83 KFGF 210210
OPUFGF
PRAIRIE TO PINES WEATHER ROUNDUP
NATIONAL WEATHER SERVICE EASTERN NORTH DAKOTA/GRAND FORKS ND
900 PM CDT FRI OCT 20 2017

 **SATELLITE DATA USED TO AUGMENT SKY COVER AT AUTOMATED STATIONS**
 *****  WEATHER ACROSS EASTERN NORTH DAKOTA  *****

CITY           SKY/WX    TMP DP  RH WIND       PRES   REMARKS
GRAND FORKS    MOCLDY    71  55  56 S22G38    29.36S
GRAND FORKS AF FAIR      70  54  56 S21G29    29.35S
GRAND CITY NWS NOT AVBL
BUXTON         NOT AVBL
DEVILS LAKE    FAIR      60  51  72 S10       29.33S
FARGO          FAIR      71  54  54 S24G39    29.43S
WAHPETON ARPT  NOT AVBL
$$

 *****  WEATHER ACROSS CENTRAL AND WESTERN NORTH DAKOTA  *****

CITY           SKY/WX    TMP DP  RH WIND       PRES   REMARKS
JAMESTOWN      FAIR      68  53  58 S18G31    29.35R
BISMARCK       FAIR      70  52  52 S22       29.25F
MINOT          FAIR      60  46  59 VRB3      29.20F
MINOT AFB      FAIR      54  42  65 SE5       29.19F
GARRISON         N/A     62  49  62 S10       29.21F
WILLISTON      CLEAR     59  39  47 NW2       29.16F
DICKINSON      FAIR      55  36  48 S8        29.19S
HETTINGER      FAIR      61  35  37 S9        29.25F
$$

 *****  OTHER OBSERVATIONS NORTHEAST NORTH DAKOTA  *****

CITY           SKY/WX    TMP DP  RH WIND       PRES   REMARKS
WALHALLA       FAIR     N/A N/A N/A SE8       29.32S
LANGDON        FAIR      63  52  67 S14       29.34S
CAVALIER       FAIR      68  55  64 S10G17    29.33R
GRAFTON        FAIR      68  54  60 S20       29.36S
CANDO          FAIR      59  50  72 SE13      29.31F
FORT TOTTEN    NOT AVBL
ROLLA          FAIR      59  50  72 S12       29.29S
RUGBY            N/A     63  50  63 SE12      29.25F
 ***** THE ABOVE OBSERVATIONS ARE NON NWS ARE NOT QUALITY
        CONTROLLED AND MAY MIS-REPORT RAIN FOR SNOW...
$$

 *****  OTHER OBSERVATIONS SOUTHEAST NORTH DAKOTA *****

CITY           SKY/WX    TMP DP  RH WIND       PRES   REMARKS
COOPERSTOWN    FAIR      66  54  63 S22G29    29.36F
VALLEY CITY    FAIR      68  55  64 S16       29.39F
OAKES          NOT AVBL
GWINNER        CLEAR     68  54  60 S18G24    29.42S
SHEYENNE NWR     N/A     68  55  63 S15       29.95S
BUFFALO        NOT AVBL
WYNDMERE       NOT AVBL
 ***** THE ABOVE OBSERVATIONS ARE NON NWS ARE NOT QUALITY
       CONTROLLED AND MAY MIS-REPORT RAIN FOR SNOW...
$$

  *****  WEATHER ACROSS NORTHERN MINNESOTA  *****

CITY           SKY/WX    TMP DP  RH WIND       PRES   REMARKS
FLAG ISLAND    FAIR      59  48  67 S20       29.45S
WARROAD        FAIR      66  55  68 SE14      29.46S
ROSEAU         FAIR      70  55  60 S14       29.43F
HALLOCK        FAIR      72  54  53 S23       29.36S
THF RVR FALLS  FAIR      70  52  52 S21G32    29.45F
HALSTAD        NOT AVBL
FOSSTON        FAIR      68  48  49 S21G31    29.49R
BAUDETTE       FAIR      68  50  52 S17G28    29.50F
WASKISH        FAIR      70  52  52 S10G22    29.52F
CROOKSTON      FAIR      72  54  53 S29G39    29.41S
$$
  *****  WEATHER ACROSS CENTRAL AND WEST MINNESOTA  *****

CITY           SKY/WX    TMP DP  RH WIND       PRES   REMARKS
BEMIDJI        FAIR      69  50  51 S18G30    29.54S
PARK RAPIDS    FAIR      69  50  50 S22G31    29.57S
WADENA         FAIR      66  52  59 S16G23    29.57F
DETROIT LAKES  FAIR      68  52  56 S16       29.54S
MOORHEAD       FAIR      70  54  56 S26G32    29.45S
FERGUS FALLS   FAIR      66  54  63 S18G24    29.52F
ELBOW LAKE     FAIR      65  53  64 SE17G23   29.54F
MORRIS MN      FAIR      66  54  63 SE13      29.54F
STAPLES        FAIR      66  46  48 S20G26    29.61R
WHEATON        FAIR      66  54  63 SE15      29.51S
$$
  *****  WEATHER ELSEWHERE ACROSS MINNESOTA  *****

CITY           SKY/WX    TMP DP  RH WIND       PRES   REMARKS
DULUTH         FAIR      64  44  48 S15G23    29.72S
INTRNTL FALLS  FAIR      68  47  46 S9        29.57S
ELY            FAIR      64  43  45 S8        29.70R
CLOQUET        FAIR      68  36  30 S10G17    29.71S
BRAINERD       FAIR      67  47  48 S21G28    29.65R
HIBBING        FAIR      66  43  43 S13G21    29.67S
ALEXANDRIA     FAIR      68  52  56 S21G31    29.60F
SAINT CLOUD    FAIR      68  48  48 S21G30    29.66S
MINNEAPOLIS    FAIR      68  48  48 S16       29.74S
$$

  *****  WEATHER ACROSS SOUTH DAKOTA  *****

CITY           SKY/WX    TMP DP  RH WIND       PRES   REMARKS
SIOUX FALLS    MOCLDY    71  59  65 S21G35    29.58S
BROOKINGS      CLOUDY    68  57  68 S21G31    29.55S
WATERTOWN      FAIR      66  57  72 S21       29.50F
HURON          FAIR      70  57  63 S16G25    29.45S
SISSETON         N/A     69  56  62 S16G23    29.47S
ABERDEEN       FAIR      69  56  62 S22G28    29.41S
MITCHELL       FAIR      72  57  59 S17G25    29.49S
PIERRE         FAIR      64  54  69 SE15      29.35F
MOBRIDGE       FAIR      66  54  65 SE16      29.29F
RAPID CITY     FAIR      52  34  50 CALM      29.34S
$$

  *****  SOME WEATHER IN NEARBY STATES *****

CITY           SKY/WX    TMP DP  RH WIND       PRES   REMARKS
GLASGOW MT     FAIR      56  31  38 W16       29.30R
GREAT FALLS MT MOCLDY    41  29  62 SW15      29.57R
CHEYENNE WY    FAIR      55  31  39 W5        29.57S
SCOTTSBLUFF NE FAIR      57  40  52 SE8       29.44S
OMAHA NE       FAIR      71  57  61 S25G33    29.72R
DES MOINES IA  FAIR      65  52  62 SE16      29.83F
DAVENPORT IA   FAIR      68  44  42 S15G22    29.98F
CHICAGO IL     CLOUDY    66  49  54 S12       30.04S
EAU CLAIRE WI  FAIR      66  45  46 S13G21    29.81R
LA CROSSE WI   FAIR      68  47  46 S12       29.84F
$$

  *****  SOME NATIONAL WEATHER *****

CITY           SKY/WX    TMP DP  RH WIND       PRES   REMARKS
LA GUARDIA NY  FAIR      68  39  34 W8        30.18R
RALEIGH NC     FAIR      58  53  84 CALM      30.24R
ATLANTA GA     MOCLDY    66  46  48 CALM      30.22R
NEW ORLEANS LA FAIR      75  72  90 E10       30.07R
OKLAHOMA CITY  MOCLDY    72  62  71 S18G29    29.85S
ALBUQUERQUE NM FAIR      66  42  41 S17       29.81S
SALT LAKE CITY FAIR      49  28  44 NW10      29.92R
LOS ANGELES CA FAIR      67  57  70 W9        29.88S
BOISE ID       MOCLDY    45  32  60 SW6       29.92R
SEATTLE WA     MOCLDY    48  43  82 S14       29.89R
$$

*** WEATHER ACROSS MANITOBA...SASKATCHEWAN AND ONTARIO ***
                ***ONTARIO***

CITY           SKY/WX    TMP DP  RH WIND       PRES   REMARKS
GERALDTON      PTCLDY    50  46  87 SE7       29.81S
THUNDER BAY    CLEAR     50  46  87 E6        29.76S
SIOUX LOOKOUT  MOCLDY    64  46  52 SE7       29.60R
TORONTO        PTCLDY    55  36  47 W8        30.15S
BIG TROUT LK   CLOUDY    41  32  70 SE14G21   29.79F
PICKLE LAKE    PTCLDY    52  37  58 E13       29.68F
DRYDEN         MOCLDY    66  46  48 S15       29.57R
KENORA         MOCLDY    68  48  49 S12G21    29.49R
$$
                *** MANITOBA***

CITY           SKY/WX    TMP DP  RH WIND       PRES   REMARKS
BRANDON        PTCLDY    52  45  76 E6        29.23F
DAUPHIN        MOCLDY    48  41  76 W2        29.20S
ISLAND LAKE    MOCLDY    46  37  71 E23G38    29.51F
PILOT MOUND      N/A     61  48  63 S15         N/A
THE PAS        MOCLDY    45  37  76 E8        29.29F
THOMPSON       CLOUDY    37  34  87 E10G18    29.52F
WINNIPEG       CLOUDY    70  52  52 S22G29    29.32R
LYNN LAKE      CLOUDY    36  34  93 E17G25    29.44F
CHURCHILL      CLOUDY    34  30  86 SE24G31   29.87S WCI  21
GILLAM         CLEAR     36  30  80 E10G25    29.69F
$$
                ***SASKATCHEWAN***

CITY           SKY/WX    TMP DP  RH WIND       PRES   REMARKS
ESTEVAN        MOCLDY    57  36  44 SE8       29.18F
KINDERSLEY     CLOUDY    50  36  57 N13G22    29.26R
LLOYDMINSTER   LGT RAIN  43  37  81 NW14G20   29.33R
PRINCE ALBERT  CLOUDY    45  37  76 NE7       29.25R
REGINA         MOCLDY    55  34  44 E5        29.16S
YORKTON        PTCLDY    52  39  62 SE9       29.16F



USA.gov is the U.S. government's official web portal to all federal, state and local government web resources and services.